Time,TemperatureF,DewpointF,PressureIn,WindDirection,WindDirectionDegrees,WindSpeedMPH,WindSpeedGustMPH,Humidity,HourlyPrecipIn,Conditions,Clouds,dailyrainin,SoftwareType,DateUTC
2013-03-29 00:04:00,31.5,25.1,0.00,North,0,0.0,0.0,77,0.00,CLR,,0.00,WeatherDisplay:10.37,2013-03-29 04:04:00,
2013-03-29 00:09:00,31.3,24.9,0.00,North,0,0.0,0.0,77,0.00,CLR,,0.00,WeatherDisplay:10.37,2013-03-29 04:09:00,
2013-03-29 00:14:00,31.2,24.8,0.00,North,0,0.0,0.0,77,0.00,CLR,,0.00,WeatherDisplay:10.37,2013-03-29 04:14:00,
2013-03-29 00:19:00,30.9,24.9,0.00,North,0,0.0,0.0,78,0.00,CLR,,0.00,WeatherDisplay:10.37,2013-03-29 04:19:00,
2013-03-29 00:24:00,30.9,24.9,0.00,North,0,0.0,0.0,78,0.00,CLR,,0.00,WeatherDisplay:10.37,2013-03-29 04:24:00,
2013-03-29 00:29:00,30.9,24.9,0.00,North,0,0.0,0.0,78,0.00,CLR,,0.00,WeatherDisplay:10.37,2013-03-29 04:29:00,
2013-03-29 00:34:00,30.9,25.2,0.00,North,0,0.0,0.0,79,0.00,CLR,,0.00,WeatherDisplay:10.37,2013-03-29 04:34:00,
2013-03-29 00:39:00,30.9,25.1,0.00,North,0,0.0,0.0,79,0.00,CLR,,0.00,WeatherDisplay:10.37,2013-03-29 04:39:00,
2013-03-29 00:44:00,30.6,24.9,0.00,North,0,0.0,0.0,79,0.00,CLR,,0.00,WeatherDisplay:10.37,2013-03-29 04:44:00,
2013-03-29 00:49:00,30.6,24.8,0.00,North,0,0.0,0.0,79,0.00,CLR,,0.00,WeatherDisplay:10.37,2013-03-29 04:49:00,
2013-03-29 00:54:00,30.6,24.8,0.00,North,0,0.0,0.0,79,0.00,CLR,,0.00,WeatherDisplay:10.37,2013-03-29 04:54:00,
2013-03-29 00:59:00,30.6,25.1,0.00,North,0,0.0,0.0,80,0.00,CLR,,0.00,WeatherDisplay:10.37,2013-03-29 04:59:00,
2013-03-29 01:04:00,30.4,24.9,0.00,North,0,0.0,0.0,80,0.00,CLR,,0.00,WeatherDisplay:10.37,2013-03-29 05:04:00,
2013-03-29 01:09:00,30.2,24.8,0.00,North,0,0.0,0.0,80,0.00,CLR,,0.00,WeatherDisplay:10.37,2013-03-29 05:09:00,
2013-03-29 01:14:00,30.0,24.6,0.00,North,0,0.0,0.0,80,0.00,CLR,,0.00,WeatherDisplay:10.37,2013-03-29 05:14:00,
2013-03-29 01:19:00,30.0,24.6,0.00,North,0,0.0,0.0,80,0.00,CLR,,0.00,WeatherDisplay:10.37,2013-03-29 05:19:00,
2013-03-29 01:29:00,30.0,24.6,0.00,North,0,0.0,0.0,80,0.00,CLR,,0.00,WeatherDisplay:10.37,2013-03-29 05:29:00,
2013-03-29 01:34:00,30.0,24.6,0.00,North,0,0.0,0.0,80,0.00,CLR,,0.00,WeatherDisplay:10.37,2013-03-29 05:34:00,
2013-03-29 01:39:00,29.8,24.4,0.00,North,0,0.0,0.0,80,0.00,CLR,,0.00,WeatherDisplay:10.37,2013-03-29 05:39:00,
2013-03-29 01:44:00,29.7,24.2,0.00,North,0,0.0,0.0,80,0.00,CLR,,0.00,WeatherDisplay:10.37,2013-03-29 05:44:00,
2013-03-29 01:49:00,29.7,24.5,0.00,North,0,0.0,0.0,81,0.00,CLR,,0.00,WeatherDisplay:10.37,2013-03-29 05:49:00,
2013-03-29 01:54:00,29.5,24.7,0.00,North,0,0.0,0.0,82,0.00,CLR,,0.00,WeatherDisplay:10.37,2013-03-29 05:54:00,
2013-03-29 01:59:00,29.5,24.7,0.00,North,0,0.0,0.0,82,0.00,CLR,,0.00,WeatherDisplay:10.37,2013-03-29 05:59:00,
2013-03-29 02:04:00,29.5,24.7,0.00,North,0,0.0,0.0,82,0.00,CLR,,0.00,WeatherDisplay:10.37,2013-03-29 06:04:00,
2013-03-29 02:09:00,29.3,24.5,0.00,North,0,0.0,0.0,82,0.00,CLR,,0.00,WeatherDisplay:10.37,2013-03-29 06:09:00,
2013-03-29 02:14:00,29.1,24.3,0.00,North,0,0.0,0.0,82,0.00,CLR,,0.00,WeatherDisplay:10.37,2013-03-29 06:14:00,
2013-03-29 02:24:00,29.1,24.3,0.00,North,0,0.0,0.0,82,0.00,CLR,,0.00,WeatherDisplay:10.37,2013-03-29 06:24:00,
2013-03-29 02:29:00,28.9,24.4,0.00,North,0,0.0,0.0,83,0.00,CLR,,0.00,WeatherDisplay:10.37,2013-03-29 06:29:00,
2013-03-29 02:39:00,28.8,24.2,0.00,North,0,0.0,0.0,83,0.00,CLR,,0.00,WeatherDisplay:10.37,2013-03-29 06:39:00,
2013-03-29 02:44:00,28.8,24.2,0.00,North,0,0.0,0.0,83,0.00,CLR,,0.00,WeatherDisplay:10.37,2013-03-29 06:44:00,
2013-03-29 02:49:00,28.6,24.4,0.00,North,0,0.0,0.0,84,0.00,CLR,,0.00,WeatherDisplay:10.37,2013-03-29 06:49:00,
2013-03-29 02:54:00,28.6,24.3,0.00,North,0,0.0,0.0,84,0.00,CLR,,0.00,WeatherDisplay:10.37,2013-03-29 06:54:00,
2013-03-29 02:59:00,28.4,24.2,0.00,North,0,0.0,0.0,84,0.00,CLR,,0.00,WeatherDisplay:10.37,2013-03-29 06:59:00,
2013-03-29 03:04:00,28.4,24.2,0.00,North,0,0.0,0.0,84,0.00,CLR,,0.00,WeatherDisplay:10.37,2013-03-29 07:04:00,
2013-03-29 03:09:00,28.2,24.0,0.00,North,0,0.0,0.0,84,0.00,CLR,,0.00,WeatherDisplay:10.37,2013-03-29 07:09:00,
2013-03-29 03:14:00,28.2,24.0,0.00,North,0,0.0,0.0,84,0.00,CLR,,0.00,WeatherDisplay:10.37,2013-03-29 07:14:00,
2013-03-29 03:19:00,28.2,24.0,0.00,North,0,0.0,0.0,84,0.00,CLR,,0.00,WeatherDisplay:10.37,2013-03-29 07:19:00,
2013-03-29 03:24:00,28.1,23.9,0.00,North,0,0.0,0.0,84,0.00,CLR,,0.00,WeatherDisplay:10.37,2013-03-29 07:24:00,
2013-03-29 03:29:00,28.0,23.8,0.00,North,0,0.0,0.0,84,0.00,CLR,,0.00,WeatherDisplay:10.37,2013-03-29 07:29:00,
2013-03-29 03:34:00,28.0,23.8,0.00,North,0,0.0,0.0,84,0.00,CLR,,0.00,WeatherDisplay:10.37,2013-03-29 07:34:00,
2013-03-29 03:39:00,27.9,23.7,0.00,North,0,0.0,0.0,84,0.00,CLR,,0.00,WeatherDisplay:10.37,2013-03-29 07:39:00,
2013-03-29 03:44:00,27.9,23.7,0.00,North,0,0.0,0.0,84,0.00,CLR,,0.00,WeatherDisplay:10.37,2013-03-29 07:44:00,
2013-03-29 03:49:00,27.9,23.7,0.00,North,0,0.0,0.0,84,0.00,CLR,,0.00,WeatherDisplay:10.37,2013-03-29 07:49:00,
2013-03-29 03:54:00,27.7,23.5,0.00,North,0,0.0,0.0,84,0.00,CLR,,0.00,WeatherDisplay:10.37,2013-03-29 07:54:00,
2013-03-29 03:59:00,27.7,23.8,0.00,North,0,0.0,0.0,85,0.00,CLR,,0.00,WeatherDisplay:10.37,2013-03-29 07:59:00,
2013-03-29 04:04:00,27.7,23.8,0.00,North,0,0.0,0.0,85,0.00,CLR,,0.00,WeatherDisplay:10.37,2013-03-29 08:04:00,
2013-03-29 04:09:00,27.7,23.8,0.00,North,0,0.0,0.0,85,0.00,CLR,,0.00,WeatherDisplay:10.37,2013-03-29 08:09:00,
2013-03-29 04:14:00,27.6,24.0,0.00,North,0,0.0,0.0,86,0.00,CLR,,0.00,WeatherDisplay:10.37,2013-03-29 08:14:00,
2013-03-29 04:19:00,27.5,23.9,0.00,North,0,0.0,0.0,86,0.00,CLR,,0.00,WeatherDisplay:10.37,2013-03-29 08:19:00,
2013-03-29 04:24:00,27.5,23.9,0.00,North,0,0.0,0.0,86,0.00,CLR,,0.00,WeatherDisplay:10.37,2013-03-29 08:24:00,
2013-03-29 04:29:00,27.5,24.1,0.00,North,0,0.0,0.0,87,0.00,CLR,,0.00,WeatherDisplay:10.37,2013-03-29 08:29:00,
2013-03-29 04:34:00,27.5,23.8,0.00,North,0,0.0,0.0,86,0.00,CLR,,0.00,WeatherDisplay:10.37,2013-03-29 08:34:00,
2013-03-29 04:39:00,27.3,24.0,0.00,North,0,0.0,0.0,87,0.00,CLR,,0.00,WeatherDisplay:10.37,2013-03-29 08:39:00,
2013-03-29 04:44:00,27.3,24.0,0.00,North,0,0.0,0.0,87,0.00,CLR,,0.00,WeatherDisplay:10.37,2013-03-29 08:44:00,
2013-03-29 04:49:00,27.6,24.3,0.00,North,0,0.0,0.0,87,0.00,CLR,,0.00,WeatherDisplay:10.37,2013-03-29 08:49:00,
2013-03-29 04:54:00,27.7,24.3,0.00,North,0,0.0,0.0,87,0.00,CLR,,0.00,WeatherDisplay:10.37,2013-03-29 08:54:00,
2013-03-29 04:59:00,27.9,24.5,0.00,North,0,0.0,0.0,87,0.00,CLR,,0.00,WeatherDisplay:10.37,2013-03-29 08:59:00,
2013-03-29 05:04:00,27.9,24.5,0.00,North,0,0.0,0.0,87,0.00,CLR,,0.00,WeatherDisplay:10.37,2013-03-29 09:04:00,
2013-03-29 05:09:00,28.0,24.7,0.00,North,0,0.0,0.0,87,0.00,CLR,,0.00,WeatherDisplay:10.37,2013-03-29 09:09:00,
2013-03-29 05:14:00,28.2,24.8,0.00,North,0,0.0,0.0,87,0.00,CLR,,0.00,WeatherDisplay:10.37,2013-03-29 09:14:00,
2013-03-29 05:19:00,28.2,24.8,0.00,North,0,0.0,0.0,87,0.00,CLR,,0.00,WeatherDisplay:10.37,2013-03-29 09:19:00,
2013-03-29 05:24:00,28.2,24.6,0.00,North,0,0.0,0.0,86,0.00,CLR,,0.00,WeatherDisplay:10.37,2013-03-29 09:24:00,
2013-03-29 05:29:00,28.2,24.6,0.00,North,0,0.0,0.0,86,0.00,CLR,,0.00,WeatherDisplay:10.37,2013-03-29 09:29:00,
2013-03-29 05:34:00,28.3,24.6,0.00,North,0,0.0,0.0,86,0.00,CLR,,0.00,WeatherDisplay:10.37,2013-03-29 09:34:00,
2013-03-29 05:39:00,28.2,24.6,0.00,North,0,0.0,0.0,86,0.00,CLR,,0.00,WeatherDisplay:10.37,2013-03-29 09:39:00,
2013-03-29 05:44:00,28.4,24.5,0.00,North,0,0.0,0.0,85,0.00,CLR,,0.00,WeatherDisplay:10.37,2013-03-29 09:44:00,
2013-03-29 05:49:00,28.6,24.6,0.00,North,0,0.0,0.0,85,0.00,CLR,,0.00,WeatherDisplay:10.37,2013-03-29 09:49:00,
2013-03-29 05:54:00,28.6,24.6,0.00,North,0,0.0,0.0,85,0.00,CLR,,0.00,WeatherDisplay:10.37,2013-03-29 09:54:00,
2013-03-29 05:59:00,28.2,24.3,0.00,North,0,0.0,0.0,85,0.00,CLR,,0.00,WeatherDisplay:10.37,2013-03-29 09:59:00,
2013-03-29 06:04:00,28.2,24.6,0.00,North,0,0.0,0.0,86,0.00,CLR,,0.00,WeatherDisplay:10.37,2013-03-29 10:04:00,
2013-03-29 06:09:00,27.9,24.2,0.00,North,0,0.0,0.0,86,0.00,CLR,,0.00,WeatherDisplay:10.37,2013-03-29 10:09:00,
2013-03-29 06:14:00,27.7,24.0,0.00,North,0,0.0,0.0,86,0.00,CLR,,0.00,WeatherDisplay:10.37,2013-03-29 10:14:00,
2013-03-29 06:19:00,27.7,24.0,0.00,North,0,0.0,0.0,86,0.00,CLR,,0.00,WeatherDisplay:10.37,2013-03-29 10:19:00,
2013-03-29 06:24:00,27.6,24.0,0.00,North,0,0.0,0.0,86,0.00,CLR,,0.00,WeatherDisplay:10.37,2013-03-29 10:24:00,
2013-03-29 06:29:00,27.3,23.7,0.00,North,0,0.0,0.0,86,0.00,CLR,,0.00,WeatherDisplay:10.37,2013-03-29 10:29:00,
2013-03-29 06:34:00,27.1,23.8,0.00,North,0,0.0,0.0,87,0.00,CLR,,0.00,WeatherDisplay:10.37,2013-03-29 10:34:00,
2013-03-29 06:39:00,27.1,23.8,0.00,North,0,0.0,0.0,87,0.00,CLR,,0.00,WeatherDisplay:10.37,2013-03-29 10:39:00,
2013-03-29 06:44:00,27.1,24.1,0.00,North,0,0.0,0.0,88,0.00,CLR,,0.00,WeatherDisplay:10.37,2013-03-29 10:44:00,
2013-03-29 06:49:00,27.1,24.1,0.00,North,0,0.0,0.0,88,0.00,CLR,,0.00,WeatherDisplay:10.37,2013-03-29 10:49:00,
2013-03-29 06:54:00,27.1,24.1,0.00,North,0,0.0,0.0,88,0.00,CLR,,0.00,WeatherDisplay:10.37,2013-03-29 10:54:00,
2013-03-29 06:59:00,27.3,24.2,0.00,North,0,0.0,0.0,88,0.00,CLR,,0.00,WeatherDisplay:10.37,2013-03-29 10:59:00,
2013-03-29 07:04:00,27.3,24.2,0.00,North,0,0.0,0.0,88,0.00,CLR,,0.00,WeatherDisplay:10.37,2013-03-29 11:04:00,
2013-03-29 07:09:00,27.2,24.1,0.00,North,0,0.0,0.0,88,0.00,CLR,,0.00,WeatherDisplay:10.37,2013-03-29 11:09:00,
2013-03-29 07:14:00,27.2,24.1,0.00,North,0,0.0,0.0,88,0.00,CLR,,0.00,WeatherDisplay:10.37,2013-03-29 11:14:00,
2013-03-29 07:19:00,27.3,24.2,0.00,North,0,0.0,0.0,88,0.00,CLR,,0.00,WeatherDisplay:10.37,2013-03-29 11:19:00,
2013-03-29 07:24:00,27.0,23.9,0.00,North,0,0.0,0.0,88,0.00,CLR,,0.00,WeatherDisplay:10.37,2013-03-29 11:24:00,
2013-03-29 07:29:00,26.8,23.7,0.00,North,0,0.0,0.0,88,0.00,CLR,,0.00,WeatherDisplay:10.37,2013-03-29 11:29:00,
2013-03-29 07:34:00,26.8,23.7,0.00,North,0,0.0,0.0,88,0.00,CLR,,0.00,WeatherDisplay:10.37,2013-03-29 11:34:00,
2013-03-29 07:39:00,27.0,23.9,0.00,North,0,0.0,0.0,88,0.00,CLR,,0.00,WeatherDisplay:10.37,2013-03-29 11:39:00,
2013-03-29 07:44:00,27.0,23.9,0.00,North,0,0.0,0.0,88,0.00,CLR,,0.00,WeatherDisplay:10.37,2013-03-29 11:44:00,
2013-03-29 07:49:00,27.3,24.5,0.00,North,0,0.0,0.0,89,0.00,CLR,,0.00,WeatherDisplay:10.37,2013-03-29 11:49:00,
2013-03-29 07:54:00,27.6,24.8,0.00,North,0,0.0,0.0,89,0.00,CLR,,0.00,WeatherDisplay:10.37,2013-03-29 11:54:00,
2013-03-29 07:59:00,27.7,24.9,0.00,North,0,0.0,0.0,89,0.00,CLR,,0.00,WeatherDisplay:10.37,2013-03-29 11:59:00,
2013-03-29 08:04:00,27.9,24.8,0.00,North,0,0.0,0.0,88,0.00,CLR,,0.00,WeatherDisplay:10.37,2013-03-29 12:04:00,
2013-03-29 08:09:00,28.2,25.1,0.00,North,0,0.0,0.0,88,0.00,CLR,,0.00,WeatherDisplay:10.37,2013-03-29 12:09:00,
2013-03-29 08:14:00,28.8,26.0,0.00,North,0,0.0,0.0,89,0.00,CLR,,0.00,WeatherDisplay:10.37,2013-03-29 12:14:00,
2013-03-29 08:19:00,29.5,26.1,0.00,North,0,0.0,0.0,87,0.00,CLR,,0.00,WeatherDisplay:10.37,2013-03-29 12:19:00,
2013-03-29 08:24:00,30.1,26.1,0.00,North,0,0.0,0.0,85,0.00,CLR,,0.00,WeatherDisplay:10.37,2013-03-29 12:24:00,
2013-03-29 08:29:00,31.4,27.1,0.00,North,0,0.0,0.0,84,0.00,CLR,,0.00,WeatherDisplay:10.37,2013-03-29 12:29:00,
2013-03-29 08:34:00,31.8,27.2,0.00,North,0,0.0,0.0,83,0.00,CLR,,0.00,WeatherDisplay:10.37,2013-03-29 12:34:00,
2013-03-29 08:39:00,32.2,27.6,0.00,North,0,0.0,0.0,83,0.00,CLR,,0.00,WeatherDisplay:10.37,2013-03-29 12:39:00,
2013-03-29 08:44:00,32.6,27.7,0.00,North,0,0.0,0.0,82,0.00,CLR,,0.00,WeatherDisplay:10.37,2013-03-29 12:44:00,
2013-03-29 08:49:00,33.3,28.7,0.00,North,0,0.0,0.0,83,0.00,CLR,,0.00,WeatherDisplay:10.37,2013-03-29 12:49:00,
2013-03-29 09:14:00,38.4,31.5,0.00,North,0,0.0,0.0,76,0.00,CLR,,0.00,WeatherDisplay:10.37,2013-03-29 13:14:00,
2013-03-29 09:19:00,41.5,33.2,0.00,North,0,0.0,0.0,72,0.00,CLR,,0.00,WeatherDisplay:10.37,2013-03-29 13:19:00,
2013-03-29 09:29:00,42.6,31.7,0.00,North,0,0.0,0.0,65,0.00,CLR,,0.00,WeatherDisplay:10.37,2013-03-29 13:29:00,
2013-03-29 09:34:00,41.8,28.9,0.00,North,0,0.0,0.0,60,0.00,CLR,,0.00,WeatherDisplay:10.37,2013-03-29 13:34:00,
2013-03-29 09:39:00,41.7,29.3,0.00,North,0,0.0,0.0,61,0.00,CLR,,0.00,WeatherDisplay:10.37,2013-03-29 13:39:00,
2013-03-29 09:44:00,41.7,28.0,0.00,North,0,0.0,0.0,58,0.00,CLR,,0.00,WeatherDisplay:10.37,2013-03-29 13:44:00,
2013-03-29 09:49:00,42.1,27.9,0.00,North,0,0.0,0.0,57,0.00,CLR,,0.00,WeatherDisplay:10.37,2013-03-29 13:49:00,
2013-03-29 09:54:00,42.6,28.4,0.00,North,0,0.0,0.0,57,0.00,CLR,,0.00,WeatherDisplay:10.37,2013-03-29 13:54:00,
2013-03-29 09:59:00,42.6,27.5,0.00,North,0,0.0,0.0,55,0.00,CLR,,0.00,WeatherDisplay:10.37,2013-03-29 13:59:00,
2013-03-29 10:04:00,42.6,28.5,0.00,North,0,0.0,0.0,57,0.00,CLR,,0.00,WeatherDisplay:10.37,2013-03-29 14:04:00,
2013-03-29 10:09:00,43.1,29.7,0.00,North,0,0.0,0.0,59,0.00,CLR,,0.00,WeatherDisplay:10.37,2013-03-29 14:09:00,
2013-03-29 10:14:00,43.5,28.4,0.00,North,0,0.0,0.0,55,0.00,CLR,,0.00,WeatherDisplay:10.37,2013-03-29 14:14:00,
2013-03-29 10:19:00,43.9,28.7,0.00,North,0,0.0,0.0,55,0.00,CLR,,0.00,WeatherDisplay:10.37,2013-03-29 14:19:00,
2013-03-29 10:24:00,44.4,29.2,0.00,North,0,0.0,0.0,55,0.00,CLR,,0.00,WeatherDisplay:10.37,2013-03-29 14:24:00,
2013-03-29 10:29:00,45.0,29.4,0.00,North,0,0.0,0.0,54,0.00,CLR,,0.00,WeatherDisplay:10.37,2013-03-29 14:29:00,
2013-03-29 10:34:00,45.7,28.6,0.00,North,0,0.0,0.0,51,0.00,CLR,,0.00,WeatherDisplay:10.37,2013-03-29 14:34:00,
2013-03-29 10:39:00,46.2,27.6,0.00,North,0,0.0,0.0,48,0.00,CLR,,0.00,WeatherDisplay:10.37,2013-03-29 14:39:00,
2013-03-29 10:44:00,46.8,24.9,0.00,North,0,0.0,0.0,42,0.00,CLR,,0.00,WeatherDisplay:10.37,2013-03-29 14:44:00,
2013-03-29 10:49:00,47.1,24.0,0.00,North,0,0.0,0.0,40,0.00,CLR,,0.00,WeatherDisplay:10.37,2013-03-29 14:49:00,
2013-03-29 10:54:00,47.5,21.9,0.00,North,0,0.0,0.0,36,0.00,CLR,,0.00,WeatherDisplay:10.37,2013-03-29 14:54:00,
2013-03-29 10:59:00,48.0,22.3,0.00,North,0,0.0,0.0,36,0.00,CLR,,0.00,WeatherDisplay:10.37,2013-03-29 14:59:00,
2013-03-29 11:04:00,48.4,21.3,0.00,North,0,0.0,0.0,34,0.00,CLR,,0.00,WeatherDisplay:10.37,2013-03-29 15:04:00,
2013-03-29 11:09:00,48.8,20.2,0.00,North,0,0.0,0.0,32,0.00,CLR,,0.00,WeatherDisplay:10.37,2013-03-29 15:09:00,
2013-03-29 11:14:00,49.3,20.6,0.00,North,0,0.0,0.0,32,0.00,CLR,,0.00,WeatherDisplay:10.37,2013-03-29 15:14:00,
2013-03-29 11:19:00,49.6,19.4,0.00,North,0,0.0,0.0,30,0.00,CLR,,0.00,WeatherDisplay:10.37,2013-03-29 15:19:00,
2013-03-29 11:29:00,50.2,21.4,0.00,North,0,0.0,0.0,32,0.00,CLR,,0.00,WeatherDisplay:10.37,2013-03-29 15:29:00,
2013-03-29 11:34:00,50.7,21.1,0.00,North,0,0.0,0.0,31,0.00,CLR,,0.00,WeatherDisplay:10.37,2013-03-29 15:34:00,
2013-03-29 11:39:00,51.1,21.4,0.00,North,0,0.0,0.0,31,0.00,CLR,,0.00,WeatherDisplay:10.37,2013-03-29 15:39:00,
2013-03-29 11:44:00,51.1,22.2,0.00,North,0,0.0,0.0,32,0.00,CLR,,0.00,WeatherDisplay:10.37,2013-03-29 15:44:00,
2013-03-29 11:54:00,51.6,21.9,0.00,North,0,0.0,0.0,31,0.00,CLR,,0.00,WeatherDisplay:10.37,2013-03-29 15:54:00,
2013-03-29 11:59:00,51.9,22.2,0.00,North,0,0.0,0.0,31,0.00,CLR,,0.00,WeatherDisplay:10.37,2013-03-29 15:59:00,
2013-03-29 12:04:00,52.7,22.9,0.00,North,0,0.0,0.0,31,0.00,CLR,,0.00,WeatherDisplay:10.37,2013-03-29 16:04:00,
2013-03-29 12:09:00,53.4,23.5,0.00,North,0,0.0,0.0,31,0.00,CLR,,0.00,WeatherDisplay:10.37,2013-03-29 16:09:00,
2013-03-29 12:19:00,54.6,24.6,0.00,North,0,0.0,0.0,31,0.00,CLR,,0.00,WeatherDisplay:10.37,2013-03-29 16:19:00,
2013-03-29 12:24:00,54.3,17.3,0.00,North,0,0.0,0.0,23,0.00,CLR,,0.00,WeatherDisplay:10.37,2013-03-29 16:24:00,
2013-03-29 12:29:00,54.4,18.3,0.00,North,0,0.0,0.0,24,0.00,CLR,,0.00,WeatherDisplay:10.37,2013-03-29 16:29:00,
2013-03-29 12:34:00,55.6,19.3,0.00,North,0,0.0,0.0,24,0.00,CLR,,0.00,WeatherDisplay:10.37,2013-03-29 16:34:00,
2013-03-29 12:39:00,56.0,17.6,0.00,North,0,0.0,0.0,22,0.00,CLR,,0.00,WeatherDisplay:10.37,2013-03-29 16:39:00,
2013-03-29 12:44:00,55.4,24.5,0.00,North,0,0.0,0.0,30,0.00,CLR,,0.00,WeatherDisplay:10.37,2013-03-29 16:44:00,
2013-03-29 12:49:00,54.7,23.8,0.00,North,0,0.0,0.0,30,0.00,CLR,,0.00,WeatherDisplay:10.37,2013-03-29 16:49:00,
2013-03-29 12:54:00,54.2,23.4,0.00,North,0,0.0,0.0,30,0.00,CLR,,0.00,WeatherDisplay:10.37,2013-03-29 16:54:00,
2013-03-29 13:04:00,54.2,23.4,0.00,North,0,0.0,0.0,30,0.00,CLR,,0.00,WeatherDisplay:10.37,2013-03-29 17:04:00,
2013-03-29 13:14:00,53.4,23.5,0.00,North,0,0.0,0.0,31,0.00,CLR,,0.00,WeatherDisplay:10.37,2013-03-29 17:14:00,
2013-03-29 13:19:00,53.4,23.5,0.00,North,0,0.0,0.0,31,0.00,CLR,,0.00,WeatherDisplay:10.37,2013-03-29 17:19:00,
2013-03-29 13:29:00,54.0,24.0,0.00,North,0,0.0,0.0,31,0.00,CLR,,0.00,WeatherDisplay:10.37,2013-03-29 17:29:00,
2013-03-29 13:34:00,53.8,23.0,0.00,North,0,0.0,0.0,30,0.00,CLR,,0.00,WeatherDisplay:10.37,2013-03-29 17:34:00,
2013-03-29 13:39:00,53.8,23.0,0.00,North,0,0.0,0.0,30,0.00,CLR,,0.00,WeatherDisplay:10.37,2013-03-29 17:39:00,
2013-03-29 13:44:00,53.5,23.6,0.00,North,0,0.0,0.0,31,0.00,CLR,,0.00,WeatherDisplay:10.37,2013-03-29 17:44:00,
2013-03-29 13:49:00,53.8,23.8,0.00,North,0,0.0,0.0,31,0.00,CLR,,0.00,WeatherDisplay:10.37,2013-03-29 17:49:00,
2013-03-29 13:59:00,54.6,23.8,0.00,North,0,0.0,0.0,30,0.00,CLR,,0.00,WeatherDisplay:10.37,2013-03-29 17:59:00,
2013-03-29 14:04:00,55.2,24.3,0.00,North,0,0.0,0.0,30,0.00,CLR,,0.00,WeatherDisplay:10.37,2013-03-29 18:04:00,
2013-03-29 14:09:00,55.9,24.8,0.00,North,0,0.0,0.0,30,0.00,CLR,,0.00,WeatherDisplay:10.37,2013-03-29 18:09:00,
2013-03-29 14:14:00,55.9,24.1,0.00,North,0,0.0,0.0,29,0.00,CLR,,0.00,WeatherDisplay:10.37,2013-03-29 18:14:00,
2013-03-29 14:19:00,56.1,25.1,0.00,North,0,0.0,0.0,30,0.00,CLR,,0.00,WeatherDisplay:10.37,2013-03-29 18:19:00,
2013-03-29 14:29:00,55.6,25.4,0.00,North,0,0.0,0.0,31,0.00,CLR,,0.00,WeatherDisplay:10.37,2013-03-29 18:29:00,
2013-03-29 14:34:00,55.2,25.1,0.00,North,0,0.0,0.0,31,0.00,CLR,,0.00,WeatherDisplay:10.37,2013-03-29 18:34:00,
2013-03-29 14:39:00,55.0,25.7,0.00,North,0,0.0,0.0,32,0.00,CLR,,0.00,WeatherDisplay:10.37,2013-03-29 18:39:00,
2013-03-29 14:49:00,54.1,24.9,0.00,North,0,0.0,0.0,32,0.00,CLR,,0.00,WeatherDisplay:10.37,2013-03-29 18:49:00,
2013-03-29 14:54:00,53.5,25.0,0.00,North,0,0.0,0.0,33,0.00,CLR,,0.00,WeatherDisplay:10.37,2013-03-29 18:54:00,
2013-03-29 14:59:00,52.9,25.9,0.00,North,0,0.0,0.0,35,0.00,CLR,,0.00,WeatherDisplay:10.37,2013-03-29 18:59:00,
2013-03-29 15:14:00,52.3,27.5,0.00,North,0,0.0,0.0,38,0.00,CLR,,0.00,WeatherDisplay:10.37,2013-03-29 19:14:00,
2013-03-29 15:19:00,52.0,27.2,0.00,North,0,0.0,0.0,38,0.00,CLR,,0.00,WeatherDisplay:10.37,2013-03-29 19:19:00,
2013-03-29 15:24:00,51.8,28.8,0.00,North,0,0.0,0.0,41,0.00,CLR,,0.00,WeatherDisplay:10.37,2013-03-29 19:24:00,
2013-03-29 15:29:00,51.6,29.3,0.00,North,0,0.0,0.0,42,0.00,CLR,,0.00,WeatherDisplay:10.37,2013-03-29 19:29:00,
2013-03-29 15:39:00,51.4,29.1,0.00,North,0,0.0,0.0,42,0.00,CLR,,0.00,WeatherDisplay:10.37,2013-03-29 19:39:00,
2013-03-29 15:44:00,51.4,29.7,0.00,North,0,0.0,0.0,43,0.00,CLR,,0.00,WeatherDisplay:10.37,2013-03-29 19:44:00,
2013-03-29 15:49:00,51.3,30.1,0.00,North,0,0.0,0.0,44,0.00,CLR,,0.00,WeatherDisplay:10.37,2013-03-29 19:49:00,
2013-03-29 15:54:00,50.6,30.0,0.00,North,0,0.0,0.0,45,0.00,CLR,,0.00,WeatherDisplay:10.37,2013-03-29 19:54:00,
2013-03-29 15:59:00,50.4,30.3,0.00,North,0,0.0,0.0,46,0.00,CLR,,0.00,WeatherDisplay:10.37,2013-03-29 19:59:00,
2013-03-29 16:04:00,50.4,31.4,0.00,North,0,0.0,0.0,48,0.00,CLR,,0.00,WeatherDisplay:10.37,2013-03-29 20:04:00,
2013-03-29 16:09:00,50.4,30.9,0.00,North,0,0.0,0.0,47,0.00,CLR,,0.00,WeatherDisplay:10.37,2013-03-29 20:09:00,
2013-03-29 16:14:00,50.2,31.2,0.00,North,0,0.0,0.0,48,0.00,CLR,,0.00,WeatherDisplay:10.37,2013-03-29 20:14:00,
2013-03-29 16:19:00,49.8,31.4,0.00,North,0,0.0,0.0,49,0.00,CLR,,0.00,WeatherDisplay:10.37,2013-03-29 20:19:00,
2013-03-29 16:29:00,49.6,31.7,0.00,North,0,0.0,0.0,50,0.00,CLR,,0.00,WeatherDisplay:10.37,2013-03-29 20:29:00,
2013-03-29 16:34:00,49.8,32.4,0.00,North,0,0.0,0.0,51,0.00,CLR,,0.00,WeatherDisplay:10.37,2013-03-29 20:34:00,
2013-03-29 16:39:00,49.8,32.4,0.00,North,0,0.0,0.0,51,0.00,CLR,,0.00,WeatherDisplay:10.37,2013-03-29 20:39:00,
2013-03-29 16:44:00,49.8,32.9,0.00,North,0,0.0,0.0,52,0.00,CLR,,0.00,WeatherDisplay:10.37,2013-03-29 20:44:00,
2013-03-29 16:49:00,49.6,32.7,0.00,North,0,0.0,0.0,52,0.00,CLR,,0.00,WeatherDisplay:10.37,2013-03-29 20:49:00,
2013-03-29 16:54:00,49.3,33.4,0.00,North,0,0.0,0.0,54,0.00,CLR,,0.00,WeatherDisplay:10.37,2013-03-29 20:54:00,
2013-03-29 16:59:00,48.9,33.9,0.00,North,0,0.0,0.0,56,0.00,CLR,,0.00,WeatherDisplay:10.37,2013-03-29 20:59:00,
2013-03-29 17:04:00,48.7,34.6,0.00,North,0,0.0,0.0,58,0.00,CLR,,0.00,WeatherDisplay:10.37,2013-03-29 21:04:00,
2013-03-29 17:09:00,48.7,34.6,0.00,North,0,0.0,0.0,58,0.00,CLR,,0.00,WeatherDisplay:10.37,2013-03-29 21:09:00,
2013-03-29 17:14:00,48.7,35.0,0.00,North,0,0.0,0.0,59,0.00,CLR,,0.00,WeatherDisplay:10.37,2013-03-29 21:14:00,
2013-03-29 17:19:00,49.1,35.8,0.00,North,0,0.0,0.0,60,0.00,CLR,,0.00,WeatherDisplay:10.37,2013-03-29 21:19:00,
2013-03-29 17:24:00,49.6,35.9,0.00,North,0,0.0,0.0,59,0.00,CLR,,0.00,WeatherDisplay:10.37,2013-03-29 21:24:00,
2013-03-29 17:29:00,49.5,35.7,0.00,North,0,0.0,0.0,59,0.00,CLR,,0.00,WeatherDisplay:10.37,2013-03-29 21:29:00,
2013-03-29 17:34:00,49.3,35.6,0.00,North,0,0.0,0.0,59,0.00,CLR,,0.00,WeatherDisplay:10.37,2013-03-29 21:34:00,
2013-03-29 17:39:00,49.1,35.8,0.00,North,0,0.0,0.0,60,0.00,CLR,,0.00,WeatherDisplay:10.37,2013-03-29 21:39:00,
2013-03-29 17:44:00,48.6,35.7,0.00,North,0,0.0,0.0,61,0.00,CLR,,0.00,WeatherDisplay:10.37,2013-03-29 21:44:00,
2013-03-29 17:49:00,48.4,36.4,0.00,North,0,0.0,0.0,63,0.00,CLR,,0.00,WeatherDisplay:10.37,2013-03-29 21:49:00,
2013-03-29 17:54:00,48.0,36.0,0.00,North,0,0.0,0.0,63,0.00,CLR,,0.00,WeatherDisplay:10.37,2013-03-29 21:54:00,
2013-03-29 17:59:00,47.8,35.8,0.00,North,0,0.0,0.0,63,0.00,CLR,,0.00,WeatherDisplay:10.37,2013-03-29 21:59:00,
2013-03-29 18:04:00,47.5,35.9,0.00,North,0,0.0,0.0,64,0.00,CLR,,0.00,WeatherDisplay:10.37,2013-03-29 22:04:00,
2013-03-29 18:09:00,46.9,35.8,0.00,North,0,0.0,0.0,65,0.00,CLR,,0.00,WeatherDisplay:10.37,2013-03-29 22:09:00,
2013-03-29 18:14:00,46.6,35.8,0.00,North,0,0.0,0.0,66,0.00,CLR,,0.00,WeatherDisplay:10.37,2013-03-29 22:14:00,
2013-03-29 18:19:00,46.5,36.5,0.00,North,0,0.0,0.0,68,0.00,CLR,,0.00,WeatherDisplay:10.37,2013-03-29 22:19:00,
2013-03-29 18:24:00,46.2,36.6,0.00,North,0,0.0,0.0,69,0.00,CLR,,0.00,WeatherDisplay:10.37,2013-03-29 22:24:00,
2013-03-29 18:29:00,46.2,37.0,0.00,North,0,0.0,0.0,70,0.00,CLR,,0.00,WeatherDisplay:10.37,2013-03-29 22:29:00,
2013-03-29 18:34:00,45.9,37.3,0.00,North,0,0.0,0.0,72,0.00,CLR,,0.00,WeatherDisplay:10.37,2013-03-29 22:34:00,
2013-03-29 18:39:00,45.7,37.9,0.00,North,0,0.0,0.0,74,0.00,CLR,,0.00,WeatherDisplay:10.37,2013-03-29 22:39:00,
2013-03-29 18:44:00,45.3,37.9,0.00,North,0,0.0,0.0,75,0.00,CLR,,0.00,WeatherDisplay:10.37,2013-03-29 22:44:00,
2013-03-29 18:49:00,45.1,38.0,0.00,North,0,0.0,0.0,76,0.00,CLR,,0.00,WeatherDisplay:10.37,2013-03-29 22:49:00,
2013-03-29 18:54:00,44.8,38.0,0.00,North,0,0.0,0.0,77,0.00,CLR,,0.00,WeatherDisplay:10.37,2013-03-29 22:54:00,
2013-03-29 18:59:00,44.6,38.2,0.00,North,0,0.0,0.0,78,0.00,CLR,,0.00,WeatherDisplay:10.37,2013-03-29 22:59:00,
2013-03-29 19:04:00,44.4,38.0,0.00,North,0,0.0,0.0,78,0.00,CLR,,0.00,WeatherDisplay:10.37,2013-03-29 23:04:00,
2013-03-29 19:09:00,44.2,38.5,0.00,North,0,0.0,0.0,80,0.00,CLR,,0.00,WeatherDisplay:10.37,2013-03-29 23:09:00,
2013-03-29 19:14:00,44.1,38.3,0.00,North,0,0.0,0.0,80,0.00,CLR,,0.00,WeatherDisplay:10.37,2013-03-29 23:14:00,
2013-03-29 19:19:00,43.9,38.4,0.00,North,0,0.0,0.0,81,0.00,CLR,,0.00,WeatherDisplay:10.37,2013-03-29 23:19:00,
2013-03-29 19:24:00,43.6,38.5,0.00,North,0,0.0,0.0,82,0.00,CLR,,0.00,WeatherDisplay:10.37,2013-03-29 23:24:00,
2013-03-29 19:29:00,43.4,38.3,0.00,North,0,0.0,0.0,82,0.00,CLR,,0.00,WeatherDisplay:10.37,2013-03-29 23:29:00,
2013-03-29 19:34:00,43.3,38.5,0.00,North,0,0.0,0.0,83,0.00,CLR,,0.00,WeatherDisplay:10.37,2013-03-29 23:34:00,
2013-03-29 19:39:00,43.0,38.5,0.00,North,0,0.0,0.0,84,0.00,CLR,,0.00,WeatherDisplay:10.37,2013-03-29 23:39:00,
2013-03-29 19:44:00,42.6,38.1,0.00,North,0,0.0,0.0,84,0.00,CLR,,0.00,WeatherDisplay:10.37,2013-03-29 23:44:00,
2013-03-29 19:49:00,42.5,38.3,0.00,North,0,0.0,0.0,85,0.00,CLR,,0.00,WeatherDisplay:10.37,2013-03-29 23:49:00,
2013-03-29 19:54:00,42.4,38.2,0.00,North,0,0.0,0.0,85,0.00,CLR,,0.00,WeatherDisplay:10.37,2013-03-29 23:54:00,
2013-03-29 19:59:00,42.2,38.0,0.00,North,0,0.0,0.0,85,0.00,CLR,,0.00,WeatherDisplay:10.37,2013-03-29 23:59:00,
2013-03-29 20:04:00,42.1,37.9,0.00,North,0,0.0,0.0,85,0.00,CLR,,0.00,WeatherDisplay:10.37,2013-03-30 00:04:00,
2013-03-29 20:09:00,42.0,38.1,0.00,North,0,0.0,0.0,86,0.00,CLR,,0.00,WeatherDisplay:10.37,2013-03-30 00:09:00,
2013-03-29 20:14:00,41.7,37.8,0.00,North,0,0.0,0.0,86,0.00,CLR,,0.00,WeatherDisplay:10.37,2013-03-30 00:14:00,
2013-03-29 20:24:00,41.5,38.0,0.00,North,0,0.0,0.0,87,0.00,CLR,,0.00,WeatherDisplay:10.37,2013-03-30 00:24:00,
2013-03-29 20:29:00,41.5,38.3,0.00,North,0,0.0,0.0,88,0.01,RA,,0.01,WeatherDisplay:10.37,2013-03-30 00:29:00,
2013-03-29 20:34:00,41.4,38.4,0.00,North,0,0.0,0.0,89,0.00,RA,,0.01,WeatherDisplay:10.37,2013-03-30 00:34:00,
2013-03-29 20:39:00,41.4,38.4,0.00,North,0,0.0,0.0,89,0.00,CLR,,0.01,WeatherDisplay:10.37,2013-03-30 00:39:00,
2013-03-29 20:44:00,41.2,38.5,0.00,North,0,0.0,0.0,90,0.00,CLR,,0.01,WeatherDisplay:10.37,2013-03-30 00:44:00,
2013-03-29 20:49:00,41.2,38.5,0.00,North,0,0.0,0.0,90,0.00,CLR,,0.01,WeatherDisplay:10.37,2013-03-30 00:49:00,
2013-03-29 20:54:00,40.8,38.4,0.00,North,0,0.0,0.0,91,0.00,CLR,,0.01,WeatherDisplay:10.37,2013-03-30 00:54:00,
2013-03-29 20:59:00,40.8,38.4,0.00,North,0,0.0,0.0,91,0.00,CLR,,0.01,WeatherDisplay:10.37,2013-03-30 00:59:00,
2013-03-29 21:04:00,40.6,38.5,0.00,North,0,0.0,0.0,92,0.00,CLR,,0.01,WeatherDisplay:10.37,2013-03-30 01:04:00,
2013-03-29 21:09:00,40.6,38.8,0.00,North,0,0.0,0.0,93,0.00,CLR,,0.01,WeatherDisplay:10.37,2013-03-30 01:09:00,
2013-03-29 21:14:00,40.6,38.8,0.00,North,0,0.0,0.0,93,0.00,CLR,,0.01,WeatherDisplay:10.37,2013-03-30 01:14:00,
2013-03-29 21:19:00,40.5,38.6,0.00,North,0,0.0,0.0,93,0.01,RA,,0.02,WeatherDisplay:10.37,2013-03-30 01:19:00,
2013-03-29 21:24:00,40.6,38.7,0.00,North,0,0.0,0.0,93,0.00,RA,,0.02,WeatherDisplay:10.37,2013-03-30 01:24:00,
2013-03-29 21:29:00,40.6,39.0,0.00,North,0,0.0,0.0,94,0.00,CLR,,0.02,WeatherDisplay:10.37,2013-03-30 01:29:00,
2013-03-29 21:34:00,40.5,38.9,0.00,North,0,0.0,0.0,94,0.00,CLR,,0.02,WeatherDisplay:10.37,2013-03-30 01:34:00,
2013-03-29 21:44:00,40.4,38.8,0.00,North,0,0.0,0.0,94,0.00,CLR,,0.02,WeatherDisplay:10.37,2013-03-30 01:44:00,
2013-03-29 21:49:00,40.3,38.7,0.00,North,0,0.0,0.0,94,0.00,CLR,,0.02,WeatherDisplay:10.37,2013-03-30 01:49:00,
2013-03-29 21:54:00,40.3,38.7,0.00,North,0,0.0,0.0,94,0.00,CLR,,0.02,WeatherDisplay:10.37,2013-03-30 01:54:00,
2013-03-29 21:59:00,40.3,38.7,0.00,North,0,0.0,0.0,94,0.00,CLR,,0.02,WeatherDisplay:10.37,2013-03-30 01:59:00,
2013-03-29 22:04:00,40.3,38.7,0.00,North,0,0.0,0.0,94,0.00,CLR,,0.02,WeatherDisplay:10.37,2013-03-30 02:04:00,
2013-03-29 22:09:00,40.3,38.7,0.00,North,0,0.0,0.0,94,0.00,CLR,,0.02,WeatherDisplay:10.37,2013-03-30 02:09:00,
2013-03-29 22:14:00,40.3,38.7,0.00,North,0,0.0,0.0,94,0.00,CLR,,0.02,WeatherDisplay:10.37,2013-03-30 02:14:00,
2013-03-29 22:19:00,40.3,38.7,0.00,North,0,0.0,0.0,94,0.00,CLR,,0.02,WeatherDisplay:10.37,2013-03-30 02:19:00,
2013-03-29 22:24:00,40.3,38.7,0.00,North,0,0.0,0.0,94,0.00,CLR,,0.02,WeatherDisplay:10.37,2013-03-30 02:24:00,
2013-03-29 22:29:00,40.3,38.7,0.00,North,0,0.0,0.0,94,0.00,CLR,,0.02,WeatherDisplay:10.37,2013-03-30 02:29:00,
2013-03-29 22:34:00,40.3,38.4,0.00,North,0,0.0,0.0,93,0.00,CLR,,0.02,WeatherDisplay:10.37,2013-03-30 02:34:00,
2013-03-29 22:39:00,40.3,38.4,0.00,North,0,0.0,0.0,93,0.00,CLR,,0.02,WeatherDisplay:10.37,2013-03-30 02:39:00,
2013-03-29 22:49:00,40.3,38.4,0.00,North,0,0.0,0.0,93,0.00,RA,,0.02,WeatherDisplay:10.37,2013-03-30 02:49:00,
2013-03-29 22:54:00,40.3,38.4,0.00,North,0,0.0,0.0,93,0.00,CLR,,0.02,WeatherDisplay:10.37,2013-03-30 02:54:00,
2013-03-29 22:59:00,40.3,38.4,0.00,North,0,0.0,0.0,93,0.00,RA,,0.00,WeatherDisplay:10.37,2013-03-30 02:59:00,
2013-03-29 23:04:00,40.3,38.4,0.00,North,0,0.0,0.0,93,0.00,RA,,0.00,WeatherDisplay:10.37,2013-03-30 03:04:00,
2013-03-29 23:14:00,40.4,38.5,0.00,North,0,0.0,0.0,93,0.00,CLR,,0.00,WeatherDisplay:10.37,2013-03-30 03:14:00,
2013-03-29 23:19:00,40.5,38.3,0.00,North,0,0.0,0.0,92,0.00,CLR,,0.00,WeatherDisplay:10.37,2013-03-30 03:19:00,
2013-03-29 23:24:00,40.6,38.8,0.00,North,0,0.0,0.0,93,0.00,CLR,,0.00,WeatherDisplay:10.37,2013-03-30 03:24:00,
2013-03-29 23:29:00,40.6,38.5,0.00,North,0,0.0,0.0,92,0.00,CLR,,0.00,WeatherDisplay:10.37,2013-03-30 03:29:00,
2013-03-29 23:45:00,40.8,38.7,0.00,North,0,0.0,0.0,92,0.00,CLR,,0.00,WeatherDisplay:10.37,2013-03-30 03:45:00,
2013-03-29 23:50:00,41.0,38.9,0.00,North,0,0.0,0.0,92,0.00,CLR,,0.00,WeatherDisplay:10.37,2013-03-30 03:50:00,
2013-03-29 23:55:00,41.0,38.9,0.00,North,0,0.0,0.0,92,0.00,CLR,,0.00,WeatherDisplay:10.37,2013-03-30 03:55:00,